Regional Weather Roundup
Issued by NWS

Home | Current Version | Previous Version | Graphics & Text | Print | Product List | Glossary On
Versions: 1 2 3 4 5 6 7 8 9 10 11 12 13 14 15 16 17 18 19 20 21 22 23 24 25 26 27 28 29 30 31 32 33 34 35 36 37 38 39 40 41 42 43 44 45 46 47 48 49 50
000
ASUS43 KBIS 290010
RWRND

NORTH DAKOTA REGIONAL WEATHER ROUNDUP
NATIONAL WEATHER SERVICE BISMARCK ND
600 PM CST WED JAN 28 2015

NOTE: "FAIR" INDICATES FEW OR NO CLOUDS BELOW 12,000 FEET WITH NO
SIGNIFICANT WEATHER AND/OR OBSTRUCTIONS TO VISIBILITY.


NDZ001>003-009>011-017-290100-
NORTHWEST NORTH DAKOTA

CITY           SKY/WX    TMP DP  RH WIND       PRES   REMARKS
WILLISTON      CLOUDY    33  29  85 NW20G29   30.19R
6HR MIN TEMP:  32; 6HR MAX TEMP:  34;

MINOT          CLOUDY    28  25  88 NW18      30.06R WCI  15
MINOT AFB      CLOUDY    28  28 100 NW21      30.06R WCI  15
$$

NDZ018>021-031>035-040>046-290100-
SOUTHWEST NORTH DAKOTA

CITY           SKY/WX    TMP DP  RH WIND       PRES   REMARKS
BISMARCK       CLOUDY    33  28  81 NW22G37   30.04R
6HR MIN TEMP:  33; 6HR MAX TEMP:  38;

DICKINSON      CLOUDY    32  29  88 NW26G35   30.10R WCI  18
GARRISON         N/A     30  27  88 NW22      30.07R WCI  17
6HR MIN TEMP:  30; 6HR MAX TEMP:  31;

HETTINGER ARPT CLOUDY    33  28  81 NW29G37   30.09R WCI  19
$$

NDZ004>008-012>016-024-026-027-054-290100-
NORTHEAST NORTH DAKOTA

CITY           SKY/WX    TMP DP  RH WIND       PRES   REMARKS
GRAND FORKS    CLOUDY    32  30  92 N20G31    29.88R
GRND FRKS AFB  FRZ DRZL  32  30  93 N16G24    29.90R
DEVILS LAKE    CLOUDY    27  25  93 N23G29    29.96R WCI  12
$$

NDZ022-023-025-028>030-036>039-047>053-290100-
SOUTHEAST NORTH DAKOTA

CITY           SKY/WX    TMP DP  RH WIND       PRES   REMARKS
FARGO          CLOUDY    34  32  92 NW14      29.85R FOG
6HR MIN TEMP:  34; 6HR MAX TEMP:  36;

JAMESTOWN      CLOUDY    32  29  88 N20       29.91R
$$



USA.gov is the U.S. government's official web portal to all federal, state and local government web resources and services.